Location: B
(0.0000°N, 0.0000°E)
Time: 12:27:59
(UTC+02:00)

Amateur Radio Satellites - All Passes

Search period start: 23 April 2014 11:57
Search period end: 24 April 2014 11:57
Location: B, 0.0000°N, 0.0000°E

Satellite Date Start Highest point End Downlink Frequencies (MHz)
Time Altitude Azimuth
HO-68 23 Apr 12:03:04 12:08:25 23° 285° (WNW) 12:13:48 435.675 MHz FM
ISS 23 Apr 12:12:03 12:15:08 36° 125° (SE) 12:18:13 145.800 FM
Oscar 11 23 Apr 12:12:24 12:15:44 22° 282° (WNW) 12:19:04 145.825 FM, Beacon 2401.500 USB
FUNcube-1 23 Apr 12:12:55 12:17:21 88° 102° (ESE) 12:21:56 145.950 - 145.970 MHz USB
Sapphire 23 Apr 12:14:53 12:20:04 48° 251° (WSW) 12:25:15 437.095 MHz 1200 baud AX-25 AFSK
PCSat 23 Apr 13:01:56 13:04:34 14° 250° (WSW) 13:07:11 145.825 MHz
KITSAT 1 23 Apr 13:35:59 13:43:36 47° 70° (ENE) 13:51:11 435.175 FM
Oscar 19 23 Apr 14:33:57 14:37:59 24° 77° (ENE) 14:42:01 437.125 CW, 437.150 USB
SO-50 23 Apr 14:34:18 14:38:48 68° 292° (WNW) 14:43:14 436.795 FM
ITAMSAT 1 23 Apr 14:40:47 14:42:27 11° 77° (ENE) 14:44:06 435.822 SSB
Oscar 16 23 Apr 14:42:25 14:47:00 33° 77° (ENE) 14:51:34 437.025 USB, Beacon 2401.1428
PANSAT 23 Apr 15:00:44 15:04:18 36° 30° (NNE) 15:07:52 not established
Uribyol 2 23 Apr 15:24:46 15:29:45 48° 77° (ENE) 15:34:41 436.500 FM
KITSAT 1 23 Apr 15:32:53 15:38:40 22° 249° (WSW) 15:44:29 435.175 FM
AO-Echo 23 Apr 15:41:26 15:46:40 57° 78° (ENE) 15:51:47 ?
OPAL 23 Apr 15:53:46 15:58:26 34° 104° (ESE) 16:03:03 ?
AO-27 23 Apr 16:07:00 16:12:05 54° 257° (WSW) 16:17:08 436.795 MHz FM
Oscar 19 23 Apr 16:13:20 16:17:03 21° 257° (WSW) 16:20:47 437.125 CW, 437.150 USB
ITAMSAT 1 23 Apr 16:16:47 16:21:40 42° 257° (WSW) 16:26:32 435.822 SSB
Gurwin Techsat 1B 23 Apr 16:22:41 16:27:50 51° 78° (ENE) 16:32:57 435.225 FM
Oscar 16 23 Apr 16:23:23 16:26:04 14° 257° (WSW) 16:28:45 437.025 USB, Beacon 2401.1428
UOSAT-12 23 Apr 16:34:00 16:38:25 81° 292° (WNW) 16:42:54 437.025 FM, 437.400 FM
PANSAT 23 Apr 16:41:05 16:44:27 29° 210° (SSW) 16:47:50 not established
AO-7 23 Apr 16:44:13 16:48:23 15° 73° (ENE) 16:52:32 29.400 - 29.500 MHz
JAS-1B 23 Apr 16:45:08 16:53:28 39° 79° (ENE) 17:00:38 435.800 - 435.900 CW/SSB
RS-15 23 Apr 16:59:08 17:08:17 29° 69° (ENE) 17:17:41 29.354 - 29.394 USB, Beacon 29.352 USB
TMSAT-1 23 Apr 17:08:01 17:13:18 71° 258° (WSW) 17:18:33 436.925 FM
OPAL 23 Apr 17:34:13 17:37:01 15° 285° (WNW) 17:39:48 ?
Uosat F 23 Apr 17:42:22 17:47:26 85° 77° (ENE) 17:52:28 435.120 FM
AO-7 23 Apr 18:32:32 18:40:45 67° 254° (WSW) 18:48:56 29.400 - 29.500 MHz
JAS-1B 23 Apr 18:35:42 18:43:29 31° 253° (WSW) 18:50:26 435.800 - 435.900 CW/SSB
RS-15 23 Apr 19:09:28 19:20:10 50° 249° (WSW) 19:31:28 29.354 - 29.394 USB, Beacon 29.352 USB
Hamsat 23 Apr 19:20:01 19:23:30 26° 79° (ENE) 19:27:00 145.90 MHz
MaSat-1 23 Apr 20:15:00 20:18:36 30° 110° (ESE) 20:21:39 437.345 MHz
STRAND 1 23 Apr 20:16:59 20:22:04 77° 103° (ESE) 20:27:11 ?
JAS-2 23 Apr 20:43:59 20:50:39 85° 78° (ENE) 20:56:29 435.800 - 435.900 CW/SSB, 435.910 FM
Hamsat 23 Apr 20:57:53 20:59:14 11° 258° (WSW) 21:00:34 145.90 MHz
SO-67 23 Apr 21:00:50 21:04:20 75° 259° (W) 21:07:48 435.3500 MHz FM
Saudisat 1A 23 Apr 21:32:24 21:36:35 48° 68° (ENE) 21:40:46 436.775 MHz
HO-68 23 Apr 22:06:30 22:12:42 33° 75° (ENE) 22:18:52 435.675 MHz FM
Oscar 11 23 Apr 22:45:56 22:49:09 21° 78° (ENE) 22:52:21 145.825 FM, Beacon 2401.500 USB
Sapphire 23 Apr 23:08:30 23:13:21 34° 109° (ESE) 23:18:11 437.095 MHz 1200 baud AX-25 AFSK
ISS 23 Apr 23:48:01 23:50:46 24° 54° (NE) 23:53:31 145.800 FM
PCSat 23 Apr 23:52:24 23:57:45 67° 289° (WNW) 00:03:05 145.825 MHz
HO-68 23 Apr 23:54:17 00:00:04 27° 255° (WSW) 00:05:52 435.675 MHz FM
Oscar 11 24 Apr 00:22:29 00:25:05 16° 258° (WSW) 00:27:41 145.825 FM, Beacon 2401.500 USB
FUNcube-1 24 Apr 00:24:26 00:28:43 62° 258° (WSW) 00:32:53 145.950 - 145.970 MHz USB
Sapphire 24 Apr 00:53:24 00:56:30 16° 290° (WNW) 00:59:37 437.095 MHz 1200 baud AX-25 AFSK
SO-50 24 Apr 01:10:08 01:11:44 12° 68° (ENE) 01:13:21 436.795 FM
ISS 24 Apr 01:26:32 01:27:17 11° 234° (SW) 01:28:03 145.800 FM
KITSAT 1 24 Apr 01:43:40 01:51:37 61° 110° (ESE) 01:59:33 435.175 FM
SO-50 24 Apr 02:47:42 02:52:04 37° 248° (WSW) 02:56:30 436.795 FM
PANSAT 24 Apr 02:48:26 02:52:04 38° 150° (SSE) 02:55:42 not established
AO-27 24 Apr 03:03:49 03:08:00 25° 103° (ESE) 03:12:12 436.795 MHz FM
Oscar 19 24 Apr 03:06:41 03:11:48 62° 102° (ESE) 03:16:54 437.125 CW, 437.150 USB
ITAMSAT 1 24 Apr 03:12:54 03:17:27 31° 103° (ESE) 03:22:01 435.822 SSB
Oscar 16 24 Apr 03:15:43 03:20:54 88° 102° (ESE) 03:26:06 437.025 USB, Beacon 2401.1428
KITSAT 1 24 Apr 03:42:07 03:46:44 16° 291° (WNW) 03:51:22 435.175 FM
Uribyol 2 24 Apr 03:59:29 04:04:36 64° 283° (WNW) 04:09:47 436.500 FM
TMSAT-1 24 Apr 04:07:50 04:11:46 21° 103° (ESE) 04:15:42 436.925 FM
AO-Echo 24 Apr 04:11:05 04:15:41 61° 282° (WNW) 04:20:23 ?
OPAL 24 Apr 04:25:08 04:30:06 84° 76° (ENE) 04:35:07 ?
PANSAT 24 Apr 04:28:53 04:32:14 27° 330° (NNW) 04:35:35 not established
Uosat F 24 Apr 04:37:13 04:38:38 11° 103° (ESE) 04:40:03 435.120 FM
RS-15 24 Apr 04:42:20 04:51:18 25° 113° (ESE) 04:59:53 29.354 - 29.394 USB, Beacon 29.352 USB
AO-27 24 Apr 04:43:32 04:47:15 20° 283° (WNW) 04:50:59 436.795 MHz FM
UOSAT-12 24 Apr 04:44:28 04:48:53 45° 248° (WSW) 04:53:15 437.025 FM, 437.400 FM
ITAMSAT 1 24 Apr 04:53:39 04:56:41 16° 283° (WNW) 04:59:44 435.822 SSB
JAS-1B 24 Apr 04:53:55 04:59:42 37° 106° (ESE) 05:06:25 435.800 - 435.900 CW/SSB
Gurwin Techsat 1B 24 Apr 05:01:10 05:06:19 55° 282° (WNW) 05:11:30 435.225 FM
AO-7 24 Apr 05:08:00 05:14:37 27° 107° (ESE) 05:21:14 29.400 - 29.500 MHz
TMSAT-1 24 Apr 05:47:13 05:51:25 24° 283° (WNW) 05:55:38 436.925 FM
Uosat F 24 Apr 06:12:29 06:17:07 40° 283° (WNW) 06:21:48 435.120 FM
JAS-1B 24 Apr 06:45:52 06:50:14 20° 280° (W) 06:55:03 435.800 - 435.900 CW/SSB
RS-15 24 Apr 06:51:56 07:03:26 58° 290° (WNW) 07:14:26 29.354 - 29.394 USB, Beacon 29.352 USB
AO-7 24 Apr 06:59:22 07:07:01 42° 286° (WNW) 07:14:44 29.400 - 29.500 MHz
STRAND 1 24 Apr 07:14:28 07:16:04 11° 77° (ENE) 07:17:39 ?
Hamsat 24 Apr 07:27:00 07:30:58 34° 101° (ESE) 07:34:56 145.90 MHz
MaSat-1 24 Apr 08:13:57 08:17:57 45° 75° (ENE) 08:22:44 437.345 MHz
JAS-2 24 Apr 08:14:55 08:20:58 45° 104° (ESE) 08:27:45 435.800 - 435.900 CW/SSB, 435.910 FM
SO-67 24 Apr 08:46:21 08:49:46 57° 101° (E) 08:53:12 435.3500 MHz FM
STRAND 1 24 Apr 08:50:10 08:54:59 41° 257° (WSW) 08:59:46 ?
Saudisat 1A 24 Apr 09:38:26 09:42:53 79° 112° (ESE) 09:47:20 436.775 MHz
HO-68 24 Apr 09:58:23 10:04:14 27° 105° (ESE) 10:10:05 435.675 MHz FM
JAS-2 24 Apr 10:01:50 10:05:53 18° 280° (W) 10:10:14 435.800 - 435.900 CW/SSB, 435.910 FM
PCSat 24 Apr 10:46:33 10:50:55 25° 70° (ENE) 10:55:17 145.825 MHz
Oscar 11 24 Apr 10:54:39 10:58:23 28° 102° (ESE) 11:02:08 145.825 FM, Beacon 2401.500 USB
ISS 24 Apr 11:24:20 11:26:26 16° 126° (SE) 11:28:33 145.800 FM
Sapphire 24 Apr 11:44:20 11:49:42 76° 251° (WSW) 11:55:05 437.095 MHz 1200 baud AX-25 AFSK
HO-68 24 Apr 11:45:22 11:51:36 33° 285° (WNW) 11:57:52 435.675 MHz FM
